Location: Unspecified
(0.0000°N, 0.0000°E)
Time: 18:01:56
(UTC+02:00)

Palapa 6 Rocket - Visible Passes

Search period start: 26 July 2016 00:00
Search period end: 05 August 2016 00:00
Orbit: 485 x 1222 km, 22.7° (Epoch: 25 July)

Date Brightness Start Highest point End Pass type
(mag) Time Alt. Az. Time Alt. Az. Time Alt. Az.
26 Jul 6.9 04:04:36 12° ENE 04:04:36 12° ENE 04:05:05 10° ENE visible
26 Jul 5.4 05:46:31 33° NNW 05:46:57 34° NNW 05:54:04 10° NE visible
26 Jul 6.4 07:32:34 10° NW 07:37:22 17° NNW 07:42:04 10° NNE visible
27 Jul 5.6 05:33:15 30° NNW 05:33:15 30° NNW 05:39:41 10° NE visible
27 Jul 6.4 07:18:51 10° NW 07:23:22 16° NNW 07:27:50 10° NNE visible
28 Jul 5.8 05:19:59 26° N 05:19:59 26° N 05:25:16 10° NE visible
28 Jul 6.4 07:05:12 10° NW 07:09:22 15° N 07:13:34 10° NNE visible
29 Jul 6.1 05:06:43 22° N 05:06:43 22° N 05:10:49 10° NE visible
29 Jul 6.5 06:51:35 10° NW 06:55:24 14° N 06:59:16 10° NNE visible
30 Jul 6.3 04:53:27 18° NNE 04:53:27 18° NNE 04:56:19 10° NNE visible
30 Jul 6.5 06:38:01 10° NNW 06:41:26 13° N 06:44:55 10° NNE visible
31 Jul 6.6 04:40:12 14° NNE 04:40:12 14° NNE 04:41:46 10° NNE visible
31 Jul 6.5 06:24:30 10° NNW 06:27:29 12° N 06:30:33 10° NNE visible
01 Aug 6.8 04:26:59 10° NNE 04:26:59 10° NNE 04:27:09 10° NNE visible
01 Aug 6.5 06:11:03 10° NNW 06:13:34 12° N 06:16:07 10° NNE visible
02 Aug 6.6 05:57:43 10° NNW 05:59:39 11° N 06:01:37 10° NNE visible
03 Aug 6.6 05:44:32 10° N 05:45:45 10° N 05:46:58 10° NNE visible
03 Aug 6.6 07:32:20 10° NNW 07:36:40 16° NNE 07:41:06 10° NE visible
04 Aug 6.5 07:18:08 10° NNW 07:22:40 16° NNE 07:27:20 10° NE visible
04 Aug 5.3 21:56:39 10° SW 21:56:51 11° SW 21:56:51 11° SW visible
